EW6934 Weather Reports


Display with metric or nautical units.
time (UTC)temp
F
wind
direction
speed
MPH
gust
MPH
rain 1hr
in
rain 24hr
in
rain mn
in
humidity
%
barometer
mb
20260504044602 52 0 0.0 2.0 0.00 0.00 0.00 63 1017.5
20260504043058 53 0 0.0 2.0 0.00 0.00 0.00 59 1017.4
20260504041557 54 0 0.0 2.0 0.00 0.00 0.00 57 1017.5
20260504040107 55 0 0.0 5.0 0.00 0.00 0.00 56 1017.6
20260504034629 54 0 0.0 5.0 0.00 0.00 0.00 57 1017.7
20260504033058 54 0 0.0 2.0 0.00 0.00 0.00 58 1017.8
20260504031552 54 0 0.0 3.0 0.00 0.00 0.00 58 1017.7
20260504030119 55 182 1.0 5.0 0.00 0.00 0.00 57 1017.6
20260504024558 55 193 1.0 4.0 0.00 0.00 0.00 56 1017.7
20260504023057 55 242 0.0 5.0 0.00 0.00 0.00 55 1017.5
20260504021554 56 213 0.0 2.0 0.00 0.00 0.00 54 1017.5
20260504020107 57 151 0.0 3.0 0.00 0.00 0.00 52 1017.2
20260504014601 58 192 0.0 6.0 0.00 0.00 0.00 50 1017.1
20260504013056 58 186 2.0 6.0 0.00 0.00 0.00 49 1016.9
20260504011553 59 166 2.0 8.0 0.00 0.00 0.00 47 1016.6
20260504010054 60 173 2.0 7.0 0.00 0.00 0.00 45 1016.6
20260504004553 60 150 1.0 10.0 0.00 0.00 0.00 44 1016.5
20260504003055 61 182 3.0 10.0 0.00 0.00 0.00 43 1016.3
20260504001604 62 187 3.0 9.0 0.00 0.00 0.00 41 1016.2
20260504000058 63 0 4.0 9.0 0.00 0.00 0.00 40 1016.0
20260503234554 65 162 3.0 8.0 0.00 0.00 0.00 37 1016.0
20260503233053 65 135 3.0 11.0 0.00 0.00 0.00 37 1015.9
20260503231553 66 166 4.0 13.0 0.00 0.00 0.00 38 1015.9
20260503230054 67 167 3.0 9.0 0.00 0.00 0.00 38 1016.0
20260503224554 68 123 3.0 15.0 0.00 0.00 0.00 38 1016.0
20260503223052 68 143 5.0 11.0 0.00 0.00 0.00 35 1016.0
20260503221553 68 180 3.0 10.0 0.00 0.00 0.00 34 1016.1
20260503220056 69 128 2.0 8.0 0.00 0.00 0.00 36 1016.1
20260503214601 69 153 3.0 11.0 0.00 0.00 0.00 35 1016.1
20260503213052 69 15 4.0 8.0 0.00 0.00 0.00 35 1016.1
20260503211556 68 210 5.0 12.0 0.00 0.00 0.00 35 1016.3
20260503210052 67 157 5.0 12.0 0.00 0.00 0.00 36 1016.3
20260503204557 68 211 3.0 9.0 0.00 0.00 0.00 35 1016.5
20260503203053 68 173 5.0 10.0 0.00 0.00 0.00 36 1016.7
20260503201556 67 210 5.0 11.0 0.00 0.00 0.00 36 1016.9
20260503200053 68 130 5.0 11.0 0.00 0.00 0.00 34 1017.3
20260503194553 67 91 2.0 11.0 0.00 0.00 0.00 33 1017.5
20260503193108 67 148 3.0 13.0 0.00 0.00 0.00 34 1017.9
20260503191554 67 155 2.0 11.0 0.00 0.00 0.00 34 1018.1
20260503190106 67 169 4.0 11.0 0.00 0.00 0.00 35 1018.3
20260503184552 66 142 2.0 10.0 0.00 0.00 0.00 35 1018.4
20260503183104 66 0 2.0 7.0 0.00 0.00 0.00 36 1018.5
20260503181551 65 231 5.0 14.0 0.00 0.00 0.00 36 1018.6
20260503180058 65 88 2.0 8.0 0.00 0.00 0.00 38 1018.6
20260503174554 63 105 1.0 8.0 0.00 0.00 0.00 38 1018.7
20260503173111 63 157 4.0 11.0 0.00 0.00 0.00 37 1018.9
20260503171553 63 338 3.0 10.0 0.00 0.00 0.00 41 1018.9
20260503140113 55 244 2.0 7.0 0.00 0.00 0.00 59 1019.7
20260503110110 40 0 0.0 1.0 0.00 0.00 0.00 84 1018.6
20260503100107 40 0 0.0 0.0 0.00 0.00 0.00 83 1017.9
20260503081556 42 0 0.0 0.0 0.00 0.00 0.00 80 1017.2
20260503071606 43 0 0.0 1.0 0.00 0.00 0.00 77 1016.6